Jackson, MI

6:00 AM EST on November 14, 2019 (GMT -0500)
Jackson County-Reynolds

Weather History for KJXN - June, 2019

Change the Weather History Date:

Saturday, June 8, 2019

  Actual Average Record
Temperature  
Mean Temperature 66 °F 65 °F  
Max Temperature 81 °F 77 °F 92 °F (2011)
Min Temperature 51 °F 54 °F 38 °F (1949)
Degree Days  
Heating Degree Days 0 3  
Month to date heating degree days 21 27  
Since 1 June heating degree days 21 27  
Since 1 July heating degree days 6657 6629  
Cooling Degree Days 1 3  
Month to date cooling degree days 14 20  
Year to date cooling degree days 24 57  
Since 1 June cooling degree days 14 20  
Growing Degree Days 16 (Base 50)    
Moisture  
Dew Point 51 °F    
Average Humidity 64    
Maximum Humidity 96    
Minimum Humidity 32    
Precipitation  
Precipitation 0.00 in 0.11 in 1.25 in (1969)
Month to date precipitation 1.71 0.84  
Year to date precipitation 13.72 11.44  
Sea Level Pressure  
Sea Level Pressure 30.05 in    
Wind  
Wind Speed 10 mph (ENE)    
Max Wind Speed 21 mph    
Max Gust Speed 31 mph    
Visibility 10 miles    
Events      
T = Trace of Precipitation, MM = Missing Value Source: NWS Daily Summary

Daily Weather History Graph

Daily Weather History Graph

Search for Another Location

Airport or City:

Astronomy

Jun. 08, 2019 Rise Set
Actual Time 6:01 AM EDT 9:12 PM EDT
Civil Twilight 5:27 AM EDT 9:46 PM EDT
Nautical Twilight 4:43 AM EDT 10:31 PM EDT
Astronomical Twilight 3:50 AM EDT 11:24 PM EDT
Moon 11:30 AM EDT (6/8) 1:11 AM EDT (6/8)
Length of Visible Light 16h 19m
Length of Day
15h 10m
Waxing Crescent, 32% of the Moon is Illuminated
Jun 8
Waxing Crescent
Jun 10
First Quarter
Jun 17
Full
Jun 25
Last Quarter
Jul 2
New

Hourly Weather History & Observations

Time (EDT) Temp. Heat Index Dew Point Humidity Pressure Visibility Wind Dir Wind Speed Gust Speed Precip Events Conditions
12:56 AM 59.0 °F - 48.9 °F 69% 30.05 in 10.0 mi NE 5.8 mph - N/A   Clear
1:56 AM 55.9 °F - 48.9 °F 77% 30.04 in 10.0 mi NE 4.6 mph - N/A   Clear
2:56 AM 54.0 °F - 48.9 °F 83% 30.04 in 10.0 mi NE 5.8 mph - N/A   Clear
3:56 AM 54.0 °F - 50.0 °F 86% 30.04 in 10.0 mi NE 4.6 mph - N/A   Clear
4:56 AM 52.0 °F - 48.9 °F 89% 30.04 in 10.0 mi NE 4.6 mph - N/A   Clear
5:56 AM 52.0 °F - 50.0 °F 93% 30.05 in 10.0 mi NE 8.1 mph - N/A   Clear
6:56 AM 55.0 °F - 51.1 °F 86% 30.05 in 10.0 mi NE 8.1 mph - N/A   Clear
7:56 AM 63.0 °F - 51.1 °F 65% 30.05 in 10.0 mi ENE 9.2 mph - N/A   Clear
8:56 AM 66.0 °F - 51.1 °F 59% 30.06 in 10.0 mi ENE 13.8 mph 20.7 mph N/A   Clear
9:56 AM 69.1 °F - 54.0 °F 58% 30.08 in 10.0 mi NE 9.2 mph - N/A   Clear
10:56 AM 73.9 °F - 57.0 °F 55% 30.07 in 10.0 mi East 10.4 mph - N/A   Clear
11:56 AM 75.9 °F - 57.0 °F 52% 30.07 in 10.0 mi ENE 12.7 mph 21.9 mph N/A   Clear
12:56 PM 75.9 °F - 55.0 °F 48% 30.07 in 10.0 mi East 15.0 mph 27.6 mph N/A   Clear
1:56 PM 79.0 °F - 55.9 °F 45% 30.06 in 10.0 mi ENE 17.3 mph 26.5 mph N/A   Clear
2:56 PM 80.1 °F 80.1 °F 55.0 °F 42% 30.04 in 10.0 mi East 16.1 mph 24.2 mph N/A   Clear
3:56 PM 80.1 °F 80.0 °F 54.0 °F 40% 30.04 in 10.0 mi ENE 12.7 mph 26.5 mph N/A   Clear
4:56 PM 79.0 °F - 48.9 °F 35% 30.04 in 10.0 mi ENE 13.8 mph 25.3 mph N/A   Clear
5:56 PM 78.1 °F - 46.9 °F 33% 30.04 in 10.0 mi ENE 13.8 mph 23.0 mph N/A   Clear
6:56 PM 77.0 °F - 50.0 °F 39% 30.04 in 10.0 mi ENE 9.2 mph - N/A   Clear
7:56 PM 73.0 °F - 50.0 °F 44% 30.04 in 10.0 mi ENE 6.9 mph - N/A   Clear
8:56 PM 70.0 °F - 50.0 °F 49% 30.04 in 10.0 mi ENE 6.9 mph - N/A   Clear
9:56 PM 70.0 °F - 51.1 °F 51% 30.03 in 10.0 mi East 10.4 mph - N/A   Clear
10:56 PM 70.0 °F - 51.1 °F 51% 30.03 in 10.0 mi East 11.5 mph 20.7 mph N/A   Clear
11:56 PM 69.1 °F - 50.0 °F 51% 30.03 in 10.0 mi East 12.7 mph 19.6 mph N/A   Clear